Weather History for KPSM - June, 2013

Change the Weather History Date:

Wednesday, June 26, 2013

  Actual Average Record
Temperature  
Mean Temperature 68 °F -  
Max Temperature 77 °F 77 °F 95 °F (2007)
Min Temperature 59 °F 59 °F 36 °F (1979)
Cooling Degree Days 3    
Growing Degree Days 18 (Base 50)    
Moisture  
Dew Point 67 °F    
Average Humidity 92    
Maximum Humidity 100    
Minimum Humidity 69    
Precipitation  
Precipitation 0.18 in - - ()
Sea Level Pressure  
Sea Level Pressure 29.78 in    
Wind  
Wind Speed 5 mph (NW)    
Max Wind Speed 13 mph    
Max Gust Speed -    
Visibility 5 miles    
Events Rain    
Averages and records for this station are not official NWS values.
T = Trace of Precipitation, MM = Missing Value Source: NWS Daily Summary

Daily Weather History Graph

Daily Weather History Graph

Search for Another Location

Airport or City:

Trip Planner

Search our weather history database for the weather conditions in past years. The results will help you decide how hot, cold, wet, or windy it might be!

Date:

Astronomy

Jun. 26, 2013 Rise Set
Actual Time 5:05 AM EDT 8:26 PM EDT
Civil Twilight 4:30 AM EDT 9:02 PM EDT
Nautical Twilight 3:44 AM EDT 9:48 PM EDT
Astronomical Twilight 2:46 AM EDT 10:45 PM EDT
Moon 10:40 PM EDT (6/26) 8:59 AM EDT (6/26)
Length of Visible Light 16h 32m
Length of Day
15h 21m
Waning Gibbous, 85% of the Moon is Illuminated
Jun 26
Waning Gibbous
Jun 30
Last Quarter
Jul 8
New
Jul 15
First Quarter
Jul 22
Full

Hourly Weather History & Observations

Time (EDT) Temp. Dew Point Humidity Pressure Visibility Wind Dir Wind Speed Gust Speed Precip Events Conditions
12:58 AM 70.2 °F 69.8 °F 99% 29.74 in 5.0 mi WSW 5.8 mph - N/A   Overcast
1:40 AM 69.8 °F 69.8 °F 100% 29.71 in 4.0 mi SW 5.8 mph - N/A   Overcast
1:58 AM 69.6 °F 69.3 °F 99% 29.73 in 3.0 mi WSW 3.5 mph - N/A   Overcast
2:58 AM 69.3 °F 68.9 °F 99% 29.71 in 4.0 mi WSW 5.8 mph - N/A   Overcast
3:14 AM 69.8 °F 69.8 °F 100% 29.70 in 7.0 mi WSW 4.6 mph - N/A   Mostly Cloudy
3:58 AM 68.9 °F 68.7 °F 99% 29.72 in 7.0 mi West 5.8 mph - N/A   Mostly Cloudy
4:58 AM 68.2 °F 67.8 °F 99% 29.72 in 7.0 mi WNW 4.6 mph - N/A   Partly Cloudy
5:58 AM 68.9 °F 68.5 °F 99% 29.74 in 7.0 mi WSW 5.8 mph - N/A   Scattered Clouds
6:58 AM 70.2 °F 68.7 °F 95% 29.75 in 7.0 mi West 4.6 mph - N/A   Mostly Cloudy
7:58 AM 72.1 °F 69.3 °F 91% 29.76 in 10.0 mi West 6.9 mph - N/A   Mostly Cloudy
8:58 AM 73.8 °F 69.8 °F 87% 29.77 in 10.0 mi NW 5.8 mph - N/A   Mostly Cloudy
9:58 AM 75.9 °F 69.6 °F 81% 29.77 in 10.0 mi West 6.9 mph - N/A   Mostly Cloudy
10:58 AM 74.8 °F 70.0 °F 85% 29.78 in 10.0 mi West 3.5 mph - N/A   Mostly Cloudy
11:58 AM 74.8 °F 70.0 °F 85% 29.79 in 10.0 mi NW 3.5 mph - N/A   Overcast
12:58 PM 77.0 °F 68.2 °F 74% 29.78 in 10.0 mi NNW 4.6 mph - N/A   Overcast
1:58 PM 76.5 °F 66.6 °F 71% 29.77 in 10.0 mi Variable 1.2 mph - N/A   Overcast
2:23 PM 77.0 °F 66.2 °F 69% 29.76 in 10.0 mi SE 4.6 mph - N/A Rain Light Rain
2:58 PM 75.0 °F 68.7 °F 81% 29.78 in 10.0 mi Calm Calm - 0.01 in Rain Light Rain
3:58 PM 74.3 °F 69.8 °F 86% 29.78 in 4.0 mi East 2.3 mph - 0.00 in Rain Light Rain
4:16 PM 73.4 °F 68.0 °F 83% 29.76 in 4.0 mi Variable 2.3 mph - N/A Rain Light Rain
4:58 PM 71.4 °F 68.4 °F 90% 29.78 in 3.0 mi NE 1.2 mph - 0.04 in Rain Rain
5:58 PM 70.3 °F 69.4 °F 97% 29.79 in 3.0 mi SSE 3.5 mph - 0.12 in Rain Light Rain
6:21 PM 69.8 °F 69.8 °F 100% 29.78 in 6.0 mi ESE 3.5 mph - N/A   Overcast
6:58 PM 69.3 °F 68.7 °F 98% 29.80 in 3.0 mi East 4.6 mph - 0.01 in   Overcast
7:08 PM 68.0 °F 66.2 °F 94% 29.79 in 2.0 mi ENE 6.9 mph - N/A   Overcast
7:20 PM 66.2 °F 66.2 °F 100% 29.79 in 1.0 mi ENE 8.1 mph - N/A   Overcast
7:58 PM 62.1 °F 61.7 °F 99% 29.85 in 1.0 mi NE 12.7 mph - N/A   Overcast
8:58 PM 60.3 °F 59.9 °F 99% 29.86 in 1.0 mi NE 10.4 mph - N/A   Overcast
9:43 PM 59.0 °F 59.0 °F 100% 29.87 in 1.2 mi NNE 6.9 mph - N/A   Overcast
9:58 PM 59.5 °F 59.2 °F 99% 29.88 in 1.0 mi NNE 6.9 mph - N/A   Overcast
10:55 PM 59.7 °F 59.5 °F 99% 29.87 in 1.0 mi Calm Calm - N/A   Overcast
11:55 PM 59.7 °F 59.4 °F 99% 29.86 in 1.0 mi NNE 5.8 mph - N/A   Overcast